Mackall AAF, NC

4:37 PM EDT on May 28, 2017 (GMT -0400)
Mackall Army Air Field

Weather History for KHFF - January, 2013

Change the Weather History Date:

Thursday, January 24, 2013

  Actual Average Record
Temperature  
Mean Temperature 36 °F -  
Max Temperature 44 °F 51 °F 64 °F (2002)
Min Temperature 26 °F 28 °F 14 °F (2003)
Degree Days  
Heating Degree Days 30    
Moisture  
Dew Point 16 °F    
Average Humidity 51    
Maximum Humidity 95    
Minimum Humidity 24    
Precipitation  
Precipitation 0.00 in - - ()
Sea Level Pressure  
Sea Level Pressure 30.28 in    
Wind  
Wind Speed 10 mph (NNE)    
Max Wind Speed 25 mph    
Max Gust Speed 32 mph    
Visibility 10 miles    
Events      
Averages and records for this station are not official NWS values.
T = Trace of Precipitation, MM = Missing Value Source: NWS Daily Summary

Daily Weather History Graph

Daily Weather History Graph

Search for Another Location

Airport or City:

Trip Planner

Search our weather history database for the weather conditions in past years. The results will help you decide how hot, cold, wet, or windy it might be!

Date:

Astronomy

Jan. 24, 2013 Rise Set
Actual Time 7:21 AM EST 5:38 PM EST
Civil Twilight 6:54 AM EST 6:05 PM EST
Nautical Twilight 6:24 AM EST 6:36 PM EST
Astronomical Twilight 5:54 AM EST 7:06 PM EST
Moon 3:40 PM EST (1/24) 5:16 AM EST (1/24)
Length of Visible Light 11h 11m
Length of Day
10h 16m
Waxing Gibbous, 94% of the Moon is Illuminated
Jan 24
Waxing Gibbous
Jan 26
Full
Feb 3
Last Quarter
Feb 10
New
Feb 17
First Quarter

Hourly Weather History & Observations

Time (EST) Temp. Windchill Dew Point Humidity Pressure Visibility Wind Dir Wind Speed Gust Speed Precip Events Conditions
12:55 AM 33.6 °F 28.4 °F 26.1 °F 74% 30.09 in 10.0 mi SSW 5.8 mph - N/A   Clear
1:55 AM 35.4 °F - 27.1 °F 72% 30.06 in 10.0 mi North - - N/A   Clear
2:55 AM 34.2 °F - 27.3 °F 76% 30.04 in 10.0 mi North - - N/A   Clear
3:55 AM 30.9 °F - 27.3 °F 86% 30.03 in 10.0 mi North - - N/A   Clear
4:55 AM 30.6 °F - 27.1 °F 87% 30.02 in 10.0 mi North - - N/A   Clear
5:55 AM 33.6 °F 29.4 °F 29.7 °F 85% 30.04 in 10.0 mi WSW 4.6 mph - N/A   Clear
6:55 AM 35.6 °F - 30.2 °F 81% 30.06 in 10.0 mi North - - N/A   Clear
7:55 AM 29.1 °F 25.4 °F 27.9 °F 95% 30.10 in 10.0 mi North 3.5 mph - N/A   Clear
8:55 AM 37.6 °F 31.6 °F 29.7 °F 73% 30.17 in 10.0 mi North 8.1 mph - N/A   Clear
9:55 AM 41.4 °F 33.0 °F 21.2 °F 45% 30.22 in 10.0 mi North 17.3 mph 27.6 mph N/A   Clear
10:55 AM 42.6 °F 34.3 °F 16.9 °F 35% 30.24 in 10.0 mi NNE 18.4 mph 25.3 mph N/A   Clear
11:55 AM 43.7 °F 35.7 °F 17.1 °F 34% 30.26 in 10.0 mi NNE 18.4 mph 24.2 mph N/A   Clear
12:55 PM 44.1 °F 36.5 °F 13.8 °F 29% 30.27 in 10.0 mi North 17.3 mph 29.9 mph N/A   Clear
1:55 PM 41.7 °F 31.6 °F 11.5 °F 29% 30.31 in 10.0 mi North 25.3 mph 32.2 mph N/A   Clear
2:55 PM 40.1 °F 31.3 °F 6.1 °F 24% 30.35 in 10.0 mi North 17.3 mph 27.6 mph N/A   Clear
3:55 PM 39.0 °F 29.6 °F 5.5 °F 25% 30.38 in 10.0 mi North 18.4 mph 25.3 mph N/A   Clear
4:55 PM 36.0 °F 28.0 °F 5.5 °F 28% 30.42 in 10.0 mi North 11.5 mph 20.7 mph N/A   Clear
5:55 PM 33.1 °F 23.0 °F 3.6 °F 29% 30.45 in 10.0 mi NNE 15.0 mph 20.7 mph N/A   Clear
6:55 PM 31.5 °F 21.8 °F 2.3 °F 29% 30.48 in 10.0 mi NE 12.7 mph 16.1 mph N/A   Clear
7:55 PM 30.2 °F 21.9 °F 2.3 °F 31% 30.51 in 10.0 mi NNE 9.2 mph - N/A   Clear
8:55 PM 29.5 °F 24.5 °F 2.3 °F 31% 30.52 in 10.0 mi NE 4.6 mph - N/A   Clear
9:55 PM 28.2 °F - 3.4 °F 35% 30.53 in 10.0 mi East 2.3 mph - N/A   Clear
10:55 PM 27.0 °F 23.0 °F 7.5 °F 44% 30.53 in 10.0 mi East 3.5 mph - N/A   Clear
11:55 PM 26.4 °F 22.4 °F 9.3 °F 49% 30.54 in 10.0 mi East 3.5 mph - N/A   Clear